TimeCDT,TemperatureF,Dew PointF,Humidity,Sea Level PressureIn,VisibilityMPH,Wind Direction,Wind SpeedMPH,Gust SpeedMPH,PrecipitationIn,Events,Conditions,WindDirDegrees,DateUTC
12:53 AM,78.1,64.9,64,29.93,10.0,SW,8.1,-,N/A,,Clear,230,2013-08-28 05:53:00
1:53 AM,77.0,64.9,66,29.93,10.0,WSW,6.9,-,N/A,,Clear,240,2013-08-28 06:53:00
2:53 AM,75.9,66.0,71,29.92,10.0,WSW,6.9,-,N/A,,Clear,240,2013-08-28 07:53:00
3:53 AM,75.0,66.0,73,29.92,10.0,WSW,6.9,-,N/A,,Clear,250,2013-08-28 08:53:00
4:53 AM,75.0,66.0,73,29.92,10.0,WSW,6.9,-,N/A,,Clear,250,2013-08-28 09:53:00
5:53 AM,77.0,64.9,66,29.94,9.0,West,9.2,-,N/A,,Clear,260,2013-08-28 10:53:00
6:53 AM,75.9,64.9,69,29.95,10.0,West,9.2,-,N/A,,Clear,260,2013-08-28 11:53:00
7:53 AM,77.0,66.9,71,29.97,9.0,West,4.6,-,N/A,,Clear,270,2013-08-28 12:53:00
8:53 AM,81.0,66.9,62,29.97,9.0,West,6.9,-,N/A,,Clear,280,2013-08-28 13:53:00
9:53 AM,84.9,69.1,59,29.97,10.0,West,5.8,-,N/A,,Clear,270,2013-08-28 14:53:00
10:53 AM,87.1,68.0,53,29.97,10.0,West,8.1,-,N/A,,Clear,280,2013-08-28 15:53:00
11:53 AM,90.0,68.0,48,29.97,9.0,NW,8.1,-,N/A,,Clear,310,2013-08-28 16:53:00
12:53 PM,93.0,69.1,45,29.96,10.0,WNW,5.8,-,N/A,,Clear,300,2013-08-28 17:53:00
1:53 PM,95.0,68.0,41,29.95,10.0,West,6.9,-,N/A,,Clear,280,2013-08-28 18:53:00
2:53 PM,96.1,69.1,41,29.94,8.0,WNW,9.2,-,N/A,,Clear,300,2013-08-28 19:53:00
3:53 PM,97.0,66.0,36,29.94,8.0,Calm,Calm,-,N/A,,Clear,0,2013-08-28 20:53:00
4:53 PM,96.1,66.9,38,29.94,10.0,NW,4.6,-,N/A,,Clear,310,2013-08-28 21:53:00
5:53 PM,95.0,70.0,44,29.94,8.0,Calm,Calm,-,N/A,,Clear,0,2013-08-28 22:53:00
6:53 PM,91.9,72.0,52,29.94,6.0,Calm,Calm,-,N/A,,Haze,0,2013-08-28 23:53:00
7:50 PM,82.4,75.2,79,29.97,1.8,Calm,Calm,-,N/A,,Haze,0,2013-08-29 00:50:00
7:53 PM,82.0,75.0,79,29.96,1.5,Calm,Calm,-,N/A,,Haze,0,2013-08-29 00:53:00
8:20 PM,82.4,73.4,74,29.97,3.0,Calm,Calm,-,N/A,,Haze,0,2013-08-29 01:20:00
8:53 PM,81.0,72.0,74,29.96,10.0,Calm,Calm,-,N/A,,Clear,0,2013-08-29 01:53:00
9:53 PM,80.1,72.0,76,29.97,10.0,Calm,Calm,-,N/A,,Clear,0,2013-08-29 02:53:00
10:53 PM,82.0,73.0,74,29.98,10.0,ENE,4.6,-,N/A,,Clear,70,2013-08-29 03:53:00